Home > Weather > Hoyerswerda > Past weeks

Flag for Germany Past Weather in Hoyerswerda, Saxony, Germany — Yesterday and Last 2 Weeks

Now
75 °F

Sunny.


Feels Like: 78 °F
Forecast: 63 / 77 °F
Wind: 1 mph from South

Location: Dresden-Klotzsche

Current Time: Jul 28, 2016 at 8:24:56 PM

Latest Report: Jul 28, 2016 at 7:50 PM


Visibility: 10 mi

Pressure: 29.95 "Hg

Humidity: 54%

Dew Point: 57 °F

Location of HoyerswerdaLocation

Past Weather in Hoyerswerda — Graph

°F

Hoyerswerda Temperature Yesterday

Maximum temperature yesterday: 79 °F (at 1:20 PM)
Minimum temperature yesterday: 63 °F (at 11:50 PM)
Average temperature yesterday: 69 °F

High & Low Weather Summary for the Past Weeks

 TemperatureHumidityPressure
High82 °F (Jul 22, 4:50 PM)100% (Jul 14, 1:20 AM)30.27 "Hg (Jul 14, 1:20 AM)
Low50 °F (Jul 16, 3:50 AM)29% (Jul 16, 5:50 PM)29.83 "Hg (Jul 14, 7:50 AM)
Average67 °F76%30.07 "Hg
* Reported Jul 13 7:50 PM — Jul 28 7:20 PM, Hoyerswerda, Weather by CustomWeather, © 2016

Note: Actual official high and low records may vary slightly from our data, if they occured in-between our weather recording intervals... More about our weather records

Advertising

Hoyerswerda Weather History for the Previous 24 Hours

Scroll right to see more
 ConditionsComfort  
Time TempWeatherWind HumidityBarometerVisibility
7:20 PM
Thu, Jul 28
77 °FSunny.2 mph47%29.95 "Hg10 mi
6:50 PM75 °FSunny.2 mph50%29.98 "Hg10 mi
6:20 PM77 °FSunny.2 mph47%29.98 "Hg10 mi
5:50 PM77 °FSunny.2 mph47%29.98 "Hg10 mi
5:20 PM77 °FPassing clouds.3 mph51%29.98 "HgN/A
4:50 PM75 °FPassing clouds.5 mph47%29.98 "HgN/A
4:20 PM75 °FSunny.5 mph54%29.98 "Hg10 mi
3:50 PM75 °FPassing clouds.6 mph47%30.01 "HgN/A
3:20 PM75 °FPassing clouds.3 mph50%30.01 "HgN/A
2:50 PM75 °FPassing clouds.5 mph50%30.01 "HgN/A
2:20 PM75 °FPassing clouds.3 mph50%30.01 "HgN/A
1:50 PM73 °FPassing clouds.5 mph53%30.04 "HgN/A
1:20 PM73 °FPartly sunny.5 mph53%30.04 "HgN/A
12:50 PM73 °FScattered clouds.3 mph53%30.04 "HgN/A
12:20 PM73 °FPassing clouds.2 mph57%30.04 "HgN/A
11:50 AM72 °FPassing clouds.3 mph53%30.04 "HgN/A
11:20 AM72 °FPassing clouds.5 mph61%30.04 "HgN/A
10:50 AM70 °FPassing clouds.3 mph69%30.04 "HgN/A
10:20 AM68 °FPassing clouds.3 mph73%30.07 "Hg6 mi
9:50 AM68 °FPartly sunny.5 mph73%30.07 "Hg5 mi
9:20 AM66 °FPartly sunny.3 mph83%30.04 "Hg5 mi
8:50 AM66 °FPartly sunny.6 mph78%30.04 "Hg5 mi
8:20 AM64 °FBroken clouds.5 mph88%30.04 "HgN/A
7:50 AM63 °FPartly sunny.6 mph94%30.04 "HgN/A
7:20 AM63 °FPartly sunny.5 mph94%30.04 "Hg5 mi
6:50 AM63 °FPartly sunny.5 mph94%30.01 "Hg5 mi
6:20 AM63 °FPartly cloudy.5 mph94%30.01 "HgN/A
5:50 AM61 °FPartly cloudy.3 mph100%30.01 "HgN/A
5:20 AM61 °FPassing clouds.5 mph100%30.01 "HgN/A
4:50 AM63 °FPartly cloudy.3 mph94%30.01 "HgN/A
4:20 AM63 °FPassing clouds.5 mph94%30.01 "HgN/A
3:50 AM63 °FPartly cloudy.5 mph94%30.01 "HgN/A
3:20 AM61 °FPassing clouds.5 mph100%30.01 "HgN/A
2:50 AM61 °FPassing clouds.5 mph100%30.01 "HgN/A
2:20 AM61 °FPassing clouds.5 mph94%30.01 "HgN/A
1:50 AM63 °FClear.5 mph94%30.01 "Hg10 mi
1:20 AM63 °FClear.6 mph94%30.01 "Hg10 mi
12:50 AM63 °FClear.5 mph100%29.98 "Hg10 mi
12:20 AM63 °FClear.3 mph94%29.98 "Hg10 mi
11:50 PM
Wed, Jul 27
63 °FClear.5 mph100%29.98 "Hg10 mi
11:20 PM64 °FClear.1 mph88%29.98 "Hg10 mi
10:50 PM64 °FFog.3 mph88%29.98 "HgN/A
10:20 PM64 °FFog.2 mph94%29.98 "HgN/A
9:50 PM64 °FFog.1 mph100%29.98 "HgN/A
9:20 PM66 °FSunny.3 mph94%29.98 "Hg10 mi
8:50 PM66 °FSunny.2 mph94%29.98 "Hg10 mi
8:20 PM68 °FSunny.1 mph94%29.98 "Hg10 mi
Weather by CustomWeather, © 2016

See weather overviewHow to use our weather pages